Weather History for Cedar City, UT

Change the Weather History Date:

Tuesday, February 18, 2014

  Actual Average Record
Temperature  
Mean Temperature 46 °F 34 °F  
Max Temperature 61 °F 47 °F 67 °F (1981)
Min Temperature 31 °F 21 °F 5 °F (1975)
Degree Days  
Heating Degree Days 19 31  
Month to date heating degree days 511 590  
Since 1 July heating degree days 4278 4265  
Cooling Degree Days 0 0  
Month to date cooling degree days 0 0  
Year to date cooling degree days 0 0  
Moisture  
Dew Point 14 °F    
Average Humidity 29    
Maximum Humidity 48    
Minimum Humidity 9    
Precipitation  
Precipitation 0.00 in 0.03 in 0.47 in (1990)
Month to date precipitation 0.06 0.60  
Year to date precipitation 0.50 1.46  
Sea Level Pressure  
Sea Level Pressure 29.98 in    
Wind  
Wind Speed 6 mph (SSE)    
Max Wind Speed 12 mph    
Max Gust Speed 15 mph    
Visibility 10 miles    
Events      
T = Trace of Precipitation, MM = Missing Value Source: NWS Daily Summary

Daily Weather History Graph

Daily Weather History Graph

Search for Another Location

Airport:

Trip Planner

Search our weather history database for the weather conditions in past years. The results will help you decide how hot, cold, wet, or windy it might be!

Date:

Astronomy

Feb. 18, 2014 Rise Set
Actual Time 7:18 AM MST 6:14 PM MST
Civil Twilight 6:51 AM MST 6:41 PM MST
Nautical Twilight 6:20 AM MST 7:12 PM MST
Astronomical Twilight 5:50 AM MST 7:42 PM MST
Moon 10:06 PM MST (2/18) 8:57 AM MST (2/18)
Length of Visible Light 11h 50m
Length of Day
10h 56m
Waning Gibbous, 87% of the Moon is Illuminated
Feb 18
Waning Gibbous
Feb 22
Last Quarter
Mar 1
New
Mar 8
First Quarter
Mar 16
Full

Hourly Weather History & Observations

Time (MST) Temp. Windchill Dew Point Humidity Pressure Visibility Wind Dir Wind Speed Gust Speed Precip Events Conditions
12:53 AM 42.1 °F 37.1 °F 18.0 °F 38% 29.94 in 10.0 mi South 8.1 mph - N/A   Clear
1:53 AM 39.9 °F 35.1 °F 19.0 °F 43% 29.94 in 10.0 mi SSE 6.9 mph - N/A   Clear
2:53 AM 37.9 °F 34.4 °F 19.0 °F 47% 29.96 in 10.0 mi SE 4.6 mph - N/A   Clear
3:53 AM 39.0 °F 32.8 °F 19.0 °F 45% 29.96 in 10.0 mi SE 9.2 mph - N/A   Clear
4:53 AM 37.9 °F 31.5 °F 18.0 °F 45% 29.98 in 10.0 mi South 9.2 mph - N/A   Clear
5:53 AM 35.1 °F - 18.0 °F 50% 30.00 in 10.0 mi Calm Calm - N/A   Clear
6:53 AM 36.0 °F 30.3 °F 18.0 °F 48% 30.03 in 10.0 mi SE 6.9 mph - N/A   Clear
7:53 AM 39.0 °F 34.8 °F 17.1 °F 41% 30.03 in 10.0 mi SE 5.8 mph - N/A   Clear
8:53 AM 41.0 °F 38.0 °F 21.9 °F 47% 30.05 in 10.0 mi North 4.6 mph - N/A   Clear
9:53 AM 46.0 °F - 19.0 °F 34% 30.03 in 10.0 mi Calm Calm - N/A   Clear
10:53 AM 55.0 °F - 15.1 °F 21% 30.00 in 10.0 mi Calm Calm - N/A   Clear
11:53 AM 57.9 °F - 10.0 °F 15% 30.00 in 10.0 mi Calm Calm - N/A   Clear
12:53 PM 57.9 °F - 10.0 °F 15% 29.98 in 10.0 mi Calm Calm - N/A   Clear
1:53 PM 60.1 °F - 1.9 °F 10% 29.96 in 10.0 mi WNW 9.2 mph - N/A   Clear
2:53 PM 60.1 °F - 3.9 °F 11% 29.96 in 10.0 mi NW 9.2 mph - N/A   Clear
3:53 PM 59.0 °F - 5.0 °F 12% 29.95 in 10.0 mi North 6.9 mph - N/A   Clear
4:53 PM 59.0 °F - 3.9 °F 11% 29.94 in 10.0 mi Variable 5.8 mph - N/A   Clear
5:53 PM 52.0 °F - 18.0 °F 26% 29.98 in 10.0 mi WSW 4.6 mph - N/A   Scattered Clouds
6:53 PM 50.0 °F - 18.0 °F 28% 29.99 in 10.0 mi South 5.8 mph - N/A   Mostly Cloudy
7:53 PM 46.0 °F 42.5 °F 17.1 °F 31% 29.99 in 10.0 mi South 6.9 mph - N/A   Clear
8:53 PM 45.0 °F 41.8 °F 12.9 °F 27% 30.00 in 10.0 mi SE 5.8 mph - N/A   Clear
9:53 PM 44.1 °F 39.0 °F 10.9 °F 26% 29.98 in 10.0 mi SE 9.2 mph - N/A   Clear
10:53 PM 42.1 °F 36.6 °F 10.9 °F 28% 29.95 in 10.0 mi SE 9.2 mph - N/A   Clear
11:53 PM 42.1 °F 37.7 °F 10.0 °F 27% 29.94 in 10.0 mi SE 6.9 mph - N/A   Mostly Cloudy